Starlink 5754

operational
NORAD ID: 55579 Int'l Des: 2023-020 Owner: SPXS Country: US Constellation: starlink
LEOCIRCULAR

About Starlink 5754

Description loading...

Live Position

Loading 3D Globe...

Upcoming Passes

Altitude History

Altitude vs Time

uPlot chart will show altitude changes over time

Two-Line Element Set

1 55579U 23020L 25347.35758198 .00000067 00000-0 20048-4 0 9996
2 55579 43.0036 113.6648 0001309 275.5412 84.5282 15.02530428155939
Epoch: Dec 13, 2025 • Age: 22 hours

Current Status

Altitude 569.8 km
Velocity 7.58 km/s
Sub-Earth Point -38.39°S, 167.07°E
Launch Date Feb 12, 2023
Age 2.8 years
Type internet

Technical Details

Classification Payload
Mass 305.00 kg
Dry Mass 290.00 kg
Total Mass 305.00 kg
Length 0.20 m
Diameter 2.80 m
Span 9.00 m
Shape Box + pan
Manufacturer SPXS
Bus Type Starlink
Phase Status In Orbit
Owner/State SPXS/US

Large Constellations

Loading constellations...